sat.trackr.live / text

‹ back to catalog

CHUTIAN-2 A

NORAD 66409 · 2025-256A

PAYLOAD ACTIVE UNKNOWN

§ Identity

Operator
Country
PRC
Launch date
2025-11-09
Launch site
JSC
Launch vehicle
Mass (kg)
RCS (m²)

External: N2YO · Heavens-Above · Gunter

§ Orbital elements

Epoch: 2026-05-24T21:59:49.939008Z

Period
99.30 min
Inclination
98.2514°
Eccentricity
0.0014490
Mean motion
14.50175951 rev/d
Perigee alt
714.8 km
Apogee alt
735.4 km
Semi-major
7,103.2 km
B*
1.0460e-4
RAAN
211.5684°
Arg perigee
47.5897°
Mean anomaly
312.6521°
Rev number
2,852

§ Raw data

CHUTIAN-2 A1 66409U 25256A   26144.91655022  .00000363  00000+0  10460-3 0  99972 66409  98.2514 211.5684 0014490  47.5897 312.6521 14.50175951 28526

JSON: /api/v1/satellites/66409 · /tle

For live sub-satellite position, see the globe view (requires WebGL).

§ Visibility from observer

Set your observer location to see the next 7 days of passes ≥ 10°. The values pass through the URL so the page stays shareable.

No JS? Fill the form by hand. The geolocation button needs JavaScript.